Temperature
6 6 6 7 7 7 7 7 8 8 8 8 7 7 6 5 5 5 4 4 5 5 5 5 6 6 6 6 7 7 7 7 8 8 8 8 8 8 8 8 8 8 8 8
6 6 6 6 7 7 7 7 7 7 7 7 6 5 5 5 4 4 4 4 4 4 4 4 5 5 6 6 6 6 6 7 7 7 7 7 7 7 7 7 7 7 7 7
8 6 7 7 7 7 6 6 7 7 7 6 6 5 5 4 4 3 3 3 3 4 4 4 4 4 5 5 5 5 6 6 6 6 6 6 6 6 6 6 7 7 7 7
7 7 7 8 6 6 6 6 6 6 6 5 5 4 3 3 3 3 3 3 3 3 3 4 4 4 4 4 4 4 5 5 5 5 5 5 5 6 6 6 6 6 6 6
7 7 8 7 5 5 6 6 6 5 5 4 3 4 4 3 2 2 2 2 3 3 3 3 3 3 4 4 4 4 4 4 4 5 5 5 5 5 5 5 5 5 5 5
6 7 8 8 6 4 6 6 5 5 4 4 4 6 5 3 2 2 2 2 2 2 3 3 3 3 3 3 3 3 4 4 4 4 4 4 4 4 4 4 5 5 5 5
6 7 8 6 5 5 7 8 4 4 4 3 4 4 3 2 2 2 2 2 2 2 2 2 2 2 2 2 3 3 3 3 3 4 4 4 4 4 4 4 4 4 4 4
6 6 7 5 4 6 7 4 3 3 3 2 2 2 2 1 1 1 1 1 1 1 1 2 1 2 2 2 2 2 2 2 3 3 3 3 3 3 3 3 3 3 3 3
6 7 5 4 4 4 3 3 3 2 2 2 2 1 1 1 1 1 1 1 1 1 1 1 1 1 1 1 1 2 2 2 2 2 2 2 2 2 2 2 2 2 3 3
4 5 4 3 2 3 3 3 3 2 2 2 1 1 1 1 0 0 0 0 0 0 0 0 0 0 0 0 1 1 1 1 1 1 2 2 2 2 2 2 2 2 2 2
4 4 3 2 2 2 2 2 2 2 2 1 1 1 0 0 -0 -0 -0 -0 -0 -0 -0 -0 -0 -0 -0 0 0 0 0 1 1 1 1 1 1 1 1 1 1 1 1 1
6 5 4 4 3 3 2 2 2 1 1 1 1 0 0 -0 -1 -1 -1 -1 -1 -1 -1 -1 -1 -1 -0 -0 -0 -0 -0 -0 -0 -0 -0 0 0 1 1 1 1 1 1 1
4 4 3 3 3 3 3 2 2 1 1 1 0 -0 -0 -1 -1 -1 -1 -1 -1 -1 -1 -1 -1 -1 -1 -1 -1 -1 -1 -1 -1 -1 -1 -0 -0 -0 -0 0 0 0 0 -0
3 3 2 2 2 2 2 2 1 1 1 0 -0 -0 -1 -1 -1 -1 -2 -2 -2 -2 -1 -1 -1 -1 -1 -1 -1 -1 -1 -1 -1 -1 -1 -1 -1 -1 -1 -1 -1 -1 -1 -1
2 2 2 2 2 2 2 1 1 0 0 -0 -1 -1 -1 -2 -2 -2 -2 -2 -2 -2 -2 -2 -2 -2 -2 -2 -2 -2 -2 -2 -2 -2 -2 -2 -2 -2 -2 -2 -2 -1 -1 -1
2 2 2 2 1 1 1 1 0 0 -0 -1 -1 -1 -2 -2 -2 -2 -2 -2 -3 -2 -2 -2 -2 -2 -2 -2 -3 -3 -3 -3 -3 -3 -2 -2 -2 -2 -2 -2 -2 -2 -2 -2
1 1 1 1 1 1 1 0 0 -0 -1 -1 -1 -2 -2 -2 -2 -2 -3 -3 -3 -3 -3 -3 -3 -3 -3 -3 -3 -3 -3 -3 -3 -3 -3 -3 -3 -3 -3 -3 -3 -3 -3 -3
3 3 2 2 2 1 0 -0 -0 -1 -1 -1 -2 -2 -2 -2 -3 -3 -3 -3 -3 -3 -3 -3 -3 -3 -3 -4 -4 -4 -4 -4 -4 -4 -4 -4 -4 -4 -4 -4 -4 -4 -3 -3
2 2 1 1 1 1 0 -0 -1 -1 -1 -2 -2 -2 -2 -3 -3 -3 -4 -4 -4 -4 -4 -4 -4 -4 -4 -4 -4 -4 -4 -4 -4 -4 -4 -4 -4 -4 -4 -4 -4 -4 -4 -4
1 1 1 1 0 -0 -0 -1 -1 -1 -2 -2 -2 -3 -3 -3 -4 -4 -4 -4 -4 -4 -4 -4 -4 -4 -5 -5 -5 -5 -5 -5 -5 -5 -5 -5 -5 -5 -5 -5 -5 -5 -5 -5
1 1 0 0 -0 -1 -1 -1 -1 -2 -2 -2 -3 -3 -3 -3 -4 -4 -4 -4 -4 -4 -4 -5 -5 -5 -5 -5 -5 -5 -5 -5 -5 -5 -5 -5 -5 -5 -5 -5 -5 -5 -5 -5
1 0 0 -0 -1 -1 -1 -1 -2 -2 -2 -3 -3 -3 -3 -4 -4 -4 -4 -5 -5 -5 -5 -5 -5 -5 -5 -6 -6 -6 -6 -6 -6 -6 -6 -6 -6 -6 -6 -6 -6 -6 -6 -6
0 -0 -0 -1 -1 -1 -2 -2 -2 -2 -3 -3 -3 -3 -4 -4 -4 -5 -5 -5 -5 -5 -5 -5 -5 -6 -6 -6 -6 -6 -6 -6 -6 -6 -6 -6 -6 -6 -6 -6 -6 -6 -6 -6
-0 -1 -1 -1 -2 -2 -2 -2 -3 -3 -3 -3 -3 -4 -4 -4 -5 -5 -5 -5 -5 -5 -6 -6 -6 -6 -6 -6 -6 -6 -6 -6 -6 -6 -6 -6 -6 -6 -6 -6 -6 -6 -6 -6
-1 -1 -1 -2 -2 -2 -2 -3 -3 -3 -3 -4 -4 -4 -5 -5 -5 -5 -5 -5 -6 -6 -6 -6 -6 -6 -6 -6 -6 -6 -6 -6 -6 -6 -6 -7 -7 -7 -7 -7 -7 -7 -7 -7
-1 -1 -2 -2 -2 -2 -3 -3 -3 -3 -4 -4 -4 -5 -5 -5 -5 -6 -6 -6 -6 -6 -6 -6 -6 -6 -6 -7 -6 -7 -7 -7 -7 -7 -7 -7 -7 -7 -7 -7 -7 -7 -7 -7
-2 -2 -2 -2 -3 -3 -3 -3 -3 -4 -4 -4 -5 -5 -5 -5 -6 -6 -6 -6 -6 -6 -6 -6 -6 -7 -7 -7 -7 -7 -7 -7 -7 -7 -7 -7 -7 -7 -7 -7 -7 -7 -7 -7
Wind_Speed
1 1 0 0 0 2 3 2 2 1 1 1 2 3 4 5 6 7 8 9 8 8 7 7 7 7 6 6 5 5 4 3 3 2 2 2 1 2 2 2 3 3 4 4
1 2 1 1 2 2 3 3 3 3 3 3 2 3 4 5 6 7 7 8 8 8 8 7 8 7 7 6 6 5 4 4 3 3 2 2 2 2 2 2 3 3 4 5
1 2 2 3 3 4 3 3 3 3 2 1 2 3 3 4 5 5 7 8 8 8 7 7 8 7 7 6 6 5 4 4 3 3 3 3 2 2 3 3 3 3 4 4
1 1 2 1 2 2 3 3 3 2 1 1 2 3 2 3 4 6 7 8 8 8 8 7 7 7 6 6 5 5 4 4 4 3 3 3 3 3 3 3 3 4 4 5
2 2 3 2 2 2 3 2 3 3 2 1 3 2 1 2 5 6 7 7 7 8 8 7 7 7 6 6 5 5 5 5 5 4 4 3 3 3 3 3 3 3 4 5
2 3 3 2 3 2 2 3 3 3 2 1 1 3 2 3 6 7 7 7 7 7 7 7 8 7 6 6 5 6 6 6 5 5 4 4 4 4 3 3 3 3 3 4
4 4 4 2 4 4 4 1 4 4 3 3 2 3 3 4 5 6 7 8 8 7 7 7 7 7 6 6 6 7 6 6 5 5 4 4 3 3 3 2 3 3 3 3
5 6 5 6 7 6 1 3 4 3 3 3 3 3 3 4 5 6 7 8 8 7 7 7 7 6 7 7 7 7 6 5 5 5 4 3 3 2 2 3 3 3 3 3
6 3 2 6 4 2 2 3 3 3 2 3 3 3 4 4 5 6 7 7 7 8 7 7 7 6 7 7 7 7 6 6 5 5 4 4 3 2 2 3 3 3 3 3
5 6 5 6 5 4 3 3 3 3 2 3 3 4 5 5 5 5 6 7 7 7 7 7 7 7 7 7 7 6 6 6 5 4 4 4 2 2 2 3 3 3 3 3
6 4 4 7 8 7 5 4 3 3 2 3 4 4 5 5 5 5 6 6 6 7 7 8 8 7 7 6 6 6 6 5 5 4 4 3 3 2 3 3 3 3 3 3
7 7 6 6 7 8 7 6 5 4 3 4 4 5 5 5 5 6 6 6 7 7 8 8 8 7 7 6 6 6 5 5 4 4 4 3 3 3 2 3 3 3 3 3
3 4 4 4 6 7 7 6 5 5 5 4 5 5 5 6 5 6 6 7 7 8 8 8 8 7 7 6 6 6 6 5 4 4 4 3 3 3 2 2 2 3 3 4
5 5 4 5 6 6 5 5 4 4 4 4 4 4 5 5 6 6 7 7 7 8 8 8 8 8 7 6 6 6 6 5 5 4 4 3 3 3 3 2 2 2 2 3
9 7 5 5 5 5 4 4 4 4 4 4 3 4 5 6 6 7 7 6 7 7 8 8 8 8 6 6 6 6 5 4 4 4 3 3 3 3 3 3 3 2 2 2
8 7 7 7 7 6 5 5 5 5 4 4 4 5 5 6 7 7 6 6 7 8 8 8 8 7 6 6 6 5 5 5 5 4 3 3 3 3 3 2 2 2 2 2
11 9 9 9 9 8 7 7 6 5 5 5 5 5 5 6 6 7 7 6 7 8 8 8 8 7 6 6 5 4 4 4 5 4 3 3 3 3 3 3 3 3 3 3
11 10 10 9 9 8 8 6 5 5 5 5 5 4 5 6 7 7 7 7 7 7 7 7 6 6 6 5 5 4 4 4 4 4 3 3 3 3 3 3 3 3 3 3
9 8 8 7 7 7 6 6 5 5 4 4 4 5 5 6 7 7 6 6 7 7 6 6 7 6 5 6 6 4 4 4 4 4 3 3 3 3 3 3 3 3 3 3
7 7 7 6 6 5 5 4 4 4 4 4 4 5 5 6 6 6 6 6 5 5 6 6 6 5 5 5 6 4 4 4 4 4 3 3 3 3 3 3 3 3 3 3
8 7 7 7 6 5 4 4 4 4 4 3 4 5 5 6 5 5 5 6 5 5 6 7 5 5 5 5 6 4 4 4 4 4 3 3 3 3 3 3 3 3 3 3
7 6 6 6 5 4 3 3 4 4 3 3 4 4 5 5 5 5 5 5 5 6 5 4 4 5 6 6 4 3 3 4 4 3 3 3 3 3 3 3 3 3 3 3
6 6 6 6 5 4 3 3 3 3 3 4 4 4 5 5 4 4 5 4 4 6 5 4 6 7 7 4 3 3 3 4 4 4 3 3 3 3 3 4 4 4 4 4
5 5 5 4 4 4 3 2 2 2 3 3 3 3 3 4 4 3 4 6 6 6 4 5 7 7 5 3 3 3 3 4 4 3 4 4 3 3 3 4 4 4 4 4
5 5 5 5 5 3 3 2 1 1 2 2 2 3 2 3 3 4 4 4 6 6 4 5 6 6 4 3 3 3 3 4 4 4 4 4 4 4 4 4 4 4 4 4
5 5 4 4 3 2 2 2 2 1 1 2 2 2 2 2 3 3 3 4 5 5 4 3 4 4 3 3 4 4 4 4 4 4 4 4 4 4 4 4 5 4 4 4
4 3 3 2 2 2 2 2 2 2 2 2 2 2 2 3 3 3 3 3 3 3 3 3 3 3 3 3 4 4 4 4 4 4 4 4 4 4 4 5 4 4 4 4
Wind_Direction
48 8 130 113 182 171 189 221 218 186 216 304 342 353 6 9 8 14 15 13 11 8 3 358 356 356 356 353 351 347 344 340 331 315 298 275 250 243 237 227 221 214 207 198
84 46 54 328 278 217 221 227 224 248 278 337 341 9 12 7 7 6 4 2 360 360 355 353 349 346 345 345 344 341 340 335 330 318 304 284 272 258 240 230 223 213 207 197
205 323 284 267 253 212 194 195 210 233 267 353 344 343 347 346 354 357 354 352 350 349 346 342 339 337 337 338 337 335 332 327 321 310 297 288 274 257 246 238 229 220 214 203
222 258 238 83 62 186 197 215 221 237 286 339 323 311 321 341 351 351 348 345 342 339 336 334 332 333 334 335 335 334 330 327 323 307 292 282 269 257 251 241 229 222 213 204
201 250 267 216 191 188 203 231 216 226 245 330 343 305 281 19 355 344 341 337 333 332 328 328 333 333 332 334 337 336 333 328 322 310 292 277 268 262 256 245 232 222 211 204
195 233 241 152 149 168 198 230 172 191 206 231 321 287 307 346 338 338 341 339 335 332 332 335 337 335 333 333 333 331 328 323 317 309 297 284 274 270 264 247 230 213 210 211
212 240 259 153 150 165 206 204 144 176 186 197 236 285 316 323 328 334 336 337 339 336 335 335 335 335 331 330 329 328 324 321 319 315 309 296 283 273 257 231 219 211 209 210
195 219 237 150 159 195 217 101 150 174 196 219 254 290 302 312 320 326 331 333 336 335 333 333 333 333 328 325 325 325 322 318 318 320 317 301 285 275 254 225 214 209 202 205
209 217 80 167 184 170 140 166 177 190 213 223 253 274 289 299 308 317 322 326 329 329 326 329 330 328 321 321 323 322 319 316 316 318 314 307 290 270 254 227 214 208 203 207
240 241 217 204 206 197 189 190 184 193 205 224 256 272 282 291 299 309 315 319 322 321 319 320 323 322 319 319 321 318 313 311 310 311 311 311 305 275 250 237 226 218 212 211
237 237 216 219 212 204 192 184 181 191 221 235 251 266 277 286 292 298 305 309 311 311 311 312 316 315 317 319 319 316 312 310 309 305 303 302 295 284 267 258 243 229 226 218
217 199 194 199 188 189 189 196 197 205 233 248 253 263 274 282 288 291 297 303 305 306 306 308 309 309 312 314 314 309 306 308 307 302 302 300 297 300 297 265 278 276 259 243
209 163 177 164 166 179 192 199 202 214 230 250 259 262 271 282 287 291 294 298 300 303 302 303 303 302 306 309 307 302 296 296 295 292 292 295 293 285 291 301 263 259 258 252
182 150 165 180 184 182 188 193 202 221 237 250 259 266 270 280 287 289 291 295 299 299 300 300 298 298 303 305 301 299 296 291 289 287 286 285 282 277 271 268 276 286 259 246
197 200 190 167 166 172 174 181 203 228 242 255 263 268 274 281 286 289 292 296 298 299 300 301 299 300 305 301 297 297 295 293 290 287 283 278 274 271 267 264 263 275 286 257
184 184 181 182 185 184 186 200 221 236 245 258 267 273 278 283 288 290 293 296 295 295 299 298 296 300 306 300 297 293 290 294 293 286 280 276 271 268 269 265 265 265 267 277
173 187 194 200 201 201 206 215 227 239 247 256 267 279 285 290 292 291 293 294 290 290 293 293 295 303 304 301 296 291 291 292 291 287 278 272 269 266 265 262 260 262 267 273
198 197 193 194 198 204 213 220 229 238 246 258 269 277 280 282 286 291 296 299 296 294 295 297 301 304 301 300 296 293 291 289 288 284 279 272 270 269 268 266 264 266 272 272
191 190 192 194 196 200 208 216 226 236 244 250 259 268 276 280 283 290 296 293 292 296 307 312 310 304 302 304 303 291 290 291 289 283 276 269 269 266 262 264 268 268 269 272
183 182 183 184 187 195 208 215 221 230 236 243 257 271 281 286 292 294 292 284 283 294 305 309 306 302 302 303 302 293 291 291 292 291 284 276 270 268 266 268 269 270 270 269
177 177 179 183 189 196 203 206 212 226 236 239 248 262 277 288 292 290 288 290 299 308 307 306 303 301 303 304 299 295 294 294 294 294 289 284 281 277 274 273 271 269 268 269
176 178 180 182 185 193 200 203 210 221 231 243 255 267 279 288 292 288 277 278 299 311 312 304 303 309 313 309 300 298 295 293 293 292 289 283 279 277 278 278 275 274 273 272
172 176 178 181 184 187 194 204 212 220 233 246 256 265 273 282 286 288 294 300 306 310 309 303 312 316 316 311 300 297 295 292 290 288 288 286 281 278 277 278 277 277 276 276
168 172 171 167 163 174 197 213 223 237 248 260 261 266 275 284 286 276 287 302 311 312 307 312 319 322 321 309 302 298 295 291 288 287 286 286 283 279 276 276 275 274 273 274
164 163 163 166 178 195 204 207 220 241 265 279 287 289 282 276 279 294 300 302 310 314 310 316 324 329 325 311 307 303 300 295 294 293 289 288 285 282 278 277 276 277 276 274
169 175 181 189 191 191 191 197 220 248 271 290 302 306 306 304 298 297 300 304 309 313 313 314 319 321 316 310 305 303 302 302 301 297 293 290 287 282 278 278 279 276 275 274
162 166 168 178 187 189 190 201 222 244 255 270 288 298 303 303 303 306 308 309 311 310 309 312 313 312 310 308 306 305 303 300 298 295 292 289 287 285 283 281 279 277 275 273
Height
1483 1483 1482 1481 1480 1481 1480 1477 1475 1475 1476 1478 1479 1480 1480 1478 1477 1475 1474 1473 1472 1470 1469 1468 1467 1466 1465 1464 1463 1462 1462 1461 1460 1460 1460 1460 1460 1460 1461 1461 1462 1463 1464 1464
1482 1483 1482 1482 1480 1480 1480 1479 1478 1477 1479 1480 1481 1481 1481 1480 1478 1477 1475 1474 1472 1471 1470 1468 1466 1465 1464 1462 1461 1460 1459 1458 1458 1457 1457 1457 1456 1456 1457 1457 1458 1459 1459 1460
1478 1482 1480 1477 1478 1478 1479 1480 1479 1478 1479 1481 1481 1481 1482 1481 1480 1478 1477 1475 1473 1471 1470 1468 1466 1464 1462 1461 1460 1458 1457 1456 1455 1454 1454 1453 1453 1453 1453 1453 1454 1454 1455 1456
1479 1480 1479 1476 1480 1479 1479 1480 1480 1480 1481 1481 1482 1482 1482 1481 1480 1478 1476 1474 1472 1471 1469 1467 1465 1463 1461 1460 1458 1456 1455 1454 1452 1451 1450 1450 1449 1449 1449 1449 1449 1449 1450 1451
1480 1475 1472 1476 1479 1480 1479 1478 1480 1480 1481 1482 1482 1481 1480 1480 1479 1478 1476 1474 1472 1470 1467 1465 1463 1462 1460 1458 1456 1455 1453 1451 1450 1448 1447 1446 1446 1445 1445 1445 1445 1445 1446 1447
1481 1477 1472 1471 1478 1480 1481 1476 1478 1479 1480 1481 1481 1479 1479 1479 1478 1476 1474 1472 1470 1468 1465 1463 1461 1459 1458 1456 1454 1452 1451 1449 1447 1446 1444 1443 1442 1441 1441 1441 1441 1442 1443 1444
1479 1476 1468 1474 1478 1480 1477 1471 1477 1478 1479 1480 1480 1480 1480 1477 1476 1475 1473 1470 1468 1466 1464 1461 1459 1457 1455 1454 1452 1450 1448 1446 1445 1443 1442 1440 1439 1438 1438 1438 1438 1438 1439 1440
1476 1475 1471 1474 1476 1475 1472 1474 1475 1477 1478 1478 1478 1478 1477 1476 1474 1472 1470 1468 1466 1464 1462 1460 1458 1455 1453 1451 1449 1447 1445 1443 1442 1440 1439 1437 1436 1435 1434 1434 1434 1435 1435 1436
1470 1469 1470 1472 1472 1473 1473 1474 1475 1476 1476 1476 1476 1476 1475 1473 1472 1470 1468 1466 1464 1462 1460 1458 1456 1453 1451 1448 1446 1444 1442 1440 1439 1437 1435 1434 1433 1432 1431 1431 1431 1431 1432 1432
1471 1467 1469 1470 1470 1471 1472 1473 1473 1474 1474 1474 1474 1474 1473 1471 1470 1468 1466 1464 1462 1460 1457 1455 1453 1450 1448 1446 1443 1441 1439 1437 1435 1434 1432 1431 1430 1429 1429 1428 1428 1428 1428 1429
1467 1466 1467 1467 1467 1468 1470 1471 1472 1472 1473 1472 1472 1471 1470 1469 1467 1465 1464 1462 1459 1457 1455 1452 1450 1447 1445 1443 1440 1438 1436 1434 1432 1431 1429 1428 1427 1427 1426 1426 1425 1425 1425 1426
1457 1458 1460 1461 1462 1465 1467 1468 1469 1470 1470 1470 1469 1468 1467 1466 1464 1462 1461 1458 1456 1454 1452 1449 1447 1444 1442 1440 1437 1435 1433 1431 1429 1428 1426 1425 1424 1424 1423 1423 1423 1422 1422 1423
1454 1455 1457 1458 1460 1462 1464 1465 1466 1466 1466 1466 1466 1465 1463 1462 1461 1459 1457 1455 1453 1450 1448 1446 1443 1441 1439 1436 1434 1432 1430 1428 1427 1425 1424 1422 1421 1421 1420 1420 1420 1419 1419 1419
1451 1454 1455 1457 1458 1460 1461 1462 1463 1463 1463 1463 1462 1461 1460 1459 1457 1455 1454 1452 1449 1447 1444 1442 1440 1437 1435 1433 1431 1429 1427 1425 1424 1422 1421 1419 1419 1418 1417 1417 1416 1416 1416 1416
1449 1451 1452 1454 1456 1457 1458 1459 1460 1460 1460 1459 1458 1457 1456 1455 1453 1452 1450 1448 1445 1443 1441 1438 1436 1434 1432 1430 1428 1426 1424 1422 1421 1419 1418 1417 1416 1415 1414 1414 1413 1413 1413 1413
1445 1447 1449 1451 1453 1454 1455 1456 1456 1456 1456 1455 1454 1454 1452 1451 1449 1448 1446 1444 1442 1439 1437 1435 1432 1431 1428 1426 1424 1422 1421 1419 1418 1416 1415 1414 1413 1412 1411 1411 1410 1410 1410 1410
1440 1443 1445 1447 1448 1450 1451 1452 1452 1452 1452 1451 1450 1450 1448 1447 1445 1444 1442 1440 1437 1435 1433 1431 1429 1427 1425 1423 1421 1419 1417 1416 1415 1413 1412 1411 1410 1409 1409 1408 1408 1407 1407 1407
1436 1438 1441 1443 1444 1446 1447 1448 1448 1448 1448 1447 1447 1445 1444 1443 1441 1439 1438 1435 1433 1431 1429 1427 1425 1423 1421 1419 1417 1416 1414 1413 1411 1410 1409 1408 1407 1407 1406 1405 1405 1404 1404 1404
1432 1435 1437 1439 1441 1442 1443 1444 1444 1444 1444 1443 1442 1441 1440 1439 1437 1436 1434 1432 1429 1428 1426 1424 1421 1419 1418 1416 1414 1412 1411 1409 1408 1407 1406 1405 1404 1404 1403 1402 1402 1401 1401 1401
1429 1432 1434 1436 1437 1439 1440 1440 1440 1440 1440 1439 1438 1438 1436 1435 1434 1432 1430 1428 1427 1425 1422 1420 1418 1416 1414 1412 1411 1409 1408 1406 1405 1404 1403 1402 1401 1400 1400 1399 1398 1398 1397 1397
1426 1428 1430 1432 1434 1435 1436 1436 1436 1436 1436 1435 1435 1434 1433 1432 1430 1428 1426 1425 1423 1421 1419 1417 1415 1413 1411 1409 1407 1406 1404 1403 1402 1401 1400 1399 1398 1397 1397 1396 1395 1395 1394 1394
1423 1425 1427 1429 1430 1432 1432 1433 1433 1433 1432 1432 1431 1430 1429 1428 1426 1425 1423 1422 1420 1418 1415 1414 1412 1410 1408 1406 1404 1403 1401 1400 1399 1398 1397 1396 1395 1394 1393 1393 1392 1391 1391 1390
1421 1423 1425 1426 1427 1428 1429 1429 1429 1429 1429 1428 1428 1427 1425 1424 1423 1421 1420 1418 1416 1414 1412 1410 1409 1407 1405 1403 1401 1400 1399 1397 1396 1395 1393 1392 1391 1390 1390 1389 1389 1388 1387 1387
1419 1421 1422 1424 1424 1425 1425 1426 1426 1426 1426 1425 1424 1423 1422 1421 1419 1418 1416 1415 1413 1411 1409 1407 1406 1404 1402 1400 1399 1397 1396 1394 1393 1391 1390 1389 1388 1387 1386 1386 1385 1384 1384 1383
1418 1419 1420 1421 1421 1422 1423 1423 1423 1423 1422 1422 1421 1420 1419 1417 1416 1414 1413 1411 1410 1408 1406 1405 1403 1401 1399 1398 1396 1395 1393 1391 1390 1388 1387 1386 1385 1384 1383 1382 1381 1381 1380 1379
1416 1417 1418 1418 1419 1420 1420 1420 1420 1419 1419 1418 1418 1417 1415 1414 1413 1411 1410 1408 1407 1405 1404 1402 1400 1399 1397 1395 1394 1392 1390 1389 1387 1386 1384 1383 1382 1381 1380 1379 1378 1377 1376 1376
1414 1415 1415 1416 1416 1417 1417 1417 1417 1416 1416 1415 1414 1413 1412 1411 1410 1408 1407 1406 1404 1403 1401 1399 1398 1396 1395 1393 1391 1390 1388 1386 1385 1383 1382 1380 1379 1378 1377 1376 1375 1374 1373 1372